Theta_e
367 370 362 354 349 347 346 345 340 334 336 342 341 358 354 356 359 361 366 359 354 351 349 347 346 346 344 344 344 344 343 345 346 347 348 355 352 353
358 366 366 355 357 351 350 349 348 344 338 344 346 355 363 358 358 367 365 352 353 351 347 347 347 347 344 344 344 344 344 344 345 345 344 345 346 347
368 367 368 372 359 354 351 351 349 348 343 348 351 355 365 363 368 368 363 367 362 351 349 351 348 345 342 340 341 341 342 345 345 343 343 343 344 345
364 368 364 360 368 366 357 364 357 360 349 353 356 355 363 367 368 368 359 358 362 354 350 350 349 341 337 336 336 333 333 340 341 338 339 340 341 342
366 367 366 366 365 360 364 361 355 355 357 354 351 353 355 357 356 363 364 364 359 354 351 347 344 339 337 338 334 330 331 332 333 331 332 333 336 339
368 369 366 365 365 364 362 367 360 357 357 351 352 351 352 357 356 352 351 359 358 355 354 348 345 341 340 337 336 333 329 326 325 324 324 325 328 333
367 365 363 363 354 354 357 366 368 355 349 347 346 347 348 349 352 354 352 353 355 359 353 358 355 357 348 339 342 333 329 326 323 321 320 321 323 325
364 367 365 354 351 343 343 343 353 362 358 351 347 347 355 354 356 357 357 352 346 357 357 352 359 360 367 366 338 330 327 325 323 322 321 321 320 321
356 363 358 354 353 360 345 340 340 338 343 360 356 355 357 360 361 357 355 355 353 356 362 351 364 358 368 342 330 327 326 324 323 323 321 320 319 319
365 363 364 365 366 362 362 358 358 358 355 353 359 359 360 358 354 353 353 355 355 358 362 350 373 360 366 343 329 327 325 324 323 321 320 318 316 315
363 367 365 365 346 333 358 358 356 356 347 335 335 334 333 330 334 345 344 348 343 352 363 358 361 358 358 348 335 327 323 322 321 320 319 316 312 311
359 361 336 352 333 330 358 360 353 352 353 352 352 347 341 349 332 346 352 346 349 347 359 352 356 350 340 341 343 336 333 318 317 317 316 313 309 325
355 357 351 322 321 323 324 354 349 344 347 350 347 348 351 352 353 353 354 347 343 342 349 349 348 343 341 336 339 346 346 330 331 324 310 309 308 316
350 349 349 319 319 318 323 321 319 323 339 342 341 346 347 346 347 349 351 350 351 344 345 343 339 341 341 341 337 342 343 341 336 331 329 318 309 311
347 328 318 313 314 320 315 316 318 334 339 342 344 348 345 345 349 350 354 352 352 347 345 344 341 340 338 337 337 337 337 339 335 335 335 332 324 321
331 339 333 326 320 325 330 327 330 339 342 344 344 344 344 343 341 343 342 343 343 347 350 345 342 342 339 339 338 336 338 333 339 336 335 328 323 322
333 339 335 332 333 334 335 338 338 340 338 341 341 340 339 338 338 340 339 339 338 339 344 345 348 347 343 340 334 338 337 334 336 336 331 326 327 327
332 335 339 334 332 331 331 332 335 333 337 341 339 342 335 334 335 334 336 334 333 334 335 340 338 336 338 342 336 337 342 337 337 336 329 323 323 326
332 336 332 335 334 332 330 329 329 330 330 329 331 331 330 330 329 331 333 332 332 331 332 339 335 333 327 324 334 313 332 332 328 329 327 325 323 320
325 329 328 326 327 329 329 328 327 328 329 327 327 331 326 326 326 325 325 327 327 325 327 329 332 333 326 326 326 330 307 323 322 324 323 312 311 313
332 330 330 327 328 328 328 327 330 328 325 327 325 323 324 320 320 321 320 311 313 320 318 320 325 324 334 332 325 326 318 309 313 316 319 315 311 311
328 329 331 330 329 327 327 328 327 323 320 319 320 319 318 318 318 318 318 317 317 316 316 318 323 322 321 322 323 325 326 319 310 309 309 309 313 310
328 327 329 330 330 329 328 325 323 322 320 319 318 318 318 316 319 318 317 316 316 315 316 314 315 317 316 316 315 320 326 325 321 315 313 307 308 308
Wind_Speed
7 9 9 9 9 8 7 7 9 10 10 10 10 7 5 8 5 9 8 11 10 15 15 6 7 7 3 5 6 7 8 8 8 6 7 8 11 14
9 9 7 9 9 9 8 8 8 9 11 9 9 9 9 10 11 9 9 11 16 15 10 9 7 4 3 3 4 6 7 7 7 7 5 4 7 20
11 10 9 8 9 10 10 9 8 8 10 9 10 10 11 11 10 10 10 10 11 3 11 13 8 5 6 2 4 4 5 5 6 6 4 4 11 16
12 10 10 10 9 11 10 9 8 10 10 11 9 10 9 9 9 11 11 11 11 10 9 11 8 9 8 4 3 2 1 2 2 6 8 11 13 12
13 12 12 12 10 11 7 7 7 7 7 7 10 9 9 10 12 11 10 11 10 9 9 9 11 11 10 7 5 3 2 2 3 5 7 9 11 10
13 11 11 10 11 11 9 7 9 9 9 9 11 10 9 9 9 10 9 5 8 11 11 1 14 12 12 9 6 6 3 3 5 5 7 8 9 8
13 12 12 12 13 12 10 7 6 9 10 10 11 11 11 10 11 11 12 11 8 4 6 3 5 6 5 8 6 7 6 4 5 7 8 9 9 10
14 14 13 9 12 13 14 15 9 7 9 10 12 12 13 12 11 10 10 11 12 10 7 9 9 6 1 4 10 12 8 6 5 7 9 10 10 11
7 10 12 13 12 13 17 13 10 13 14 9 11 12 13 12 10 10 10 9 9 10 9 10 7 7 2 7 10 12 9 8 7 8 9 8 8 9
13 12 11 12 12 9 10 7 14 10 10 10 10 10 10 10 10 11 12 12 11 10 8 7 3 5 2 8 11 12 9 9 8 8 9 8 8 9
14 13 13 12 7 2 10 8 8 10 12 11 7 8 12 12 9 8 11 9 10 8 5 5 3 2 3 3 5 9 9 8 9 8 9 10 9 9
14 15 6 11 11 9 10 9 11 12 11 8 6 9 10 9 12 7 8 8 7 6 3 3 2 2 1 2 1 5 7 8 8 9 9 9 9 7
6 4 3 10 8 7 3 7 6 8 5 5 10 9 6 6 4 3 4 5 4 3 6 4 1 1 2 2 3 6 5 6 6 6 6 9 13 14
6 4 4 7 7 5 3 4 8 5 5 8 9 6 3 6 7 6 6 6 3 5 4 3 2 2 2 0 2 3 4 5 7 8 9 10 12 12
2 8 10 8 4 3 6 7 4 4 7 9 7 6 3 6 4 8 5 1 4 5 4 3 3 2 1 2 1 2 3 4 6 6 6 8 9 9
3 4 3 5 3 1 3 4 5 6 7 7 5 4 4 6 4 3 5 4 5 3 6 3 3 2 2 4 3 3 3 3 2 2 2 6 7 8
4 4 3 3 5 5 3 4 4 3 6 6 7 5 4 3 3 2 4 5 5 4 5 4 4 2 3 5 5 5 5 4 6 6 5 5 4 7
0 3 5 5 5 3 2 4 5 5 5 3 5 3 3 3 2 5 4 5 4 5 5 3 3 5 4 4 3 5 4 2 5 5 1 3 4 3
2 3 2 5 4 5 4 3 3 1 4 4 4 3 3 3 3 3 3 4 5 5 6 0 2 2 6 6 2 10 6 5 4 2 3 3 2 3
1 2 3 3 3 2 3 1 1 4 4 4 4 3 3 3 2 3 4 2 4 6 5 6 1 2 5 5 3 3 7 4 4 3 1 3 3 0
4 4 2 1 2 0 2 1 1 1 2 1 2 3 2 4 3 3 3 1 1 6 6 5 6 3 1 1 3 3 4 6 3 3 3 0 2 2
4 4 6 5 5 5 5 6 5 4 5 6 5 3 4 4 3 2 3 3 4 4 5 5 5 5 6 7 6 4 2 4 4 4 6 4 2 2
4 5 3 6 6 6 5 4 4 5 5 5 5 6 3 5 1 3 4 4 4 4 5 6 8 7 8 7 8 7 5 4 1 1 1 5 7 6
Wind_Direction
236 227 237 271 277 273 275 274 288 294 297 312 319 309 265 269 353 332 314 306 291 275 272 250 265 266 314 343 335 341 350 344 337 325 311 215 216 205
243 250 252 269 278 262 247 256 263 277 287 295 295 299 348 338 315 304 310 294 275 274 262 234 230 238 69 21 352 355 358 348 339 336 325 281 145 155
234 253 262 245 259 276 277 279 272 262 283 309 336 321 330 306 302 304 294 301 279 174 206 225 204 130 106 64 22 11 6 334 353 14 50 108 155 155
247 239 250 256 233 245 259 269 301 316 297 290 295 284 282 290 288 299 283 299 284 304 251 231 150 139 130 114 88 83 41 316 56 106 117 106 113 137
225 231 236 244 253 275 305 286 273 263 296 311 308 294 291 294 281 269 271 280 280 292 267 169 157 163 148 146 148 140 145 205 148 132 136 134 133 134
239 245 254 236 244 250 247 254 253 263 272 267 265 272 267 266 259 267 270 285 261 269 262 155 170 171 156 155 176 149 140 180 177 170 153 147 142 136
256 248 247 244 219 233 257 238 281 274 281 289 296 292 294 306 319 315 305 289 289 281 329 310 171 179 170 176 160 149 149 175 183 166 161 161 152 140
222 242 249 232 219 209 210 229 251 249 264 280 288 288 294 302 311 311 314 307 300 306 320 305 320 310 266 218 120 139 144 152 159 154 158 168 160 154
205 265 226 250 233 228 215 204 211 221 224 253 272 278 292 297 307 302 299 291 287 293 301 292 300 279 251 117 133 137 143 151 159 150 155 168 165 157
253 260 255 266 272 280 284 253 221 240 238 239 245 269 293 320 308 299 294 282 285 272 267 260 283 280 267 123 152 142 156 162 169 166 165 171 179 169
238 238 244 248 275 253 272 266 276 277 273 230 235 266 262 265 270 298 292 312 302 300 305 299 344 302 6 112 135 146 167 174 171 175 182 183 179 166
229 231 209 242 182 176 243 242 243 251 265 271 266 264 249 262 234 243 292 294 304 301 38 320 336 42 339 345 199 168 185 175 173 181 186 182 172 202
251 271 124 111 127 151 222 245 276 337 277 265 266 264 279 293 292 273 316 307 297 270 6 320 343 131 204 191 204 224 213 145 187 189 191 188 196 224
218 226 156 156 169 177 196 309 310 307 275 271 271 272 314 305 305 342 306 288 257 266 299 301 275 291 303 146 191 204 210 171 204 202 198 196 219 245
28 85 104 132 130 208 235 258 273 250 252 252 252 287 305 282 296 268 245 250 278 255 235 211 235 264 247 274 323 201 196 189 207 199 188 189 206 215
207 210 141 135 115 59 152 199 228 241 269 278 277 297 277 267 287 301 296 311 298 196 195 183 251 232 271 238 238 221 198 217 200 210 208 187 193 209
218 162 182 146 223 192 185 231 232 260 254 246 234 222 229 252 273 297 318 319 308 353 84 154 203 283 296 293 292 258 245 240 242 234 203 216 204 208
264 258 238 172 191 174 159 231 215 239 265 254 276 268 270 284 344 324 326 321 333 333 332 71 43 348 347 257 356 330 350 319 324 241 232 198 251 292
206 276 232 180 186 192 202 216 203 198 33 315 338 330 313 312 325 296 261 300 320 323 329 355 69 29 330 333 34 32 336 345 334 309 193 234 299 25
179 265 107 65 70 177 148 179 154 130 211 258 232 241 282 289 249 296 289 327 338 326 298 293 341 94 327 324 316 358 36 325 335 310 319 78 80 106
203 168 179 137 128 292 22 357 319 55 27 338 220 266 289 280 261 278 299 237 277 285 318 328 30 168 206 294 256 276 122 65 22 318 339 201 172 191
191 221 177 194 164 184 198 207 190 187 176 220 230 218 237 258 280 278 295 318 300 325 317 328 332 290 291 262 272 268 130 134 119 64 47 27 294 272
223 262 188 179 184 188 200 206 229 257 204 227 203 209 220 273 215 277 296 314 311 342 309 339 312 314 300 299 295 271 215 178 134 329 151 355 302 307